Regional Weather Roundup
Issued by NWS

Home | Current Version | Previous Version | Text Only | Print | Product List | Glossary Off
Versions: 1 2 3 4 5 6 7 8 9 10 11 12 13 14 15 16 17 18 19 20 21 22 23 24 25 26 27 28 29 30 31 32 33 34 35 36 37 38 39 40 41 42 43 44 45 46 47 48 49 50

000
ASUS43 KFSD 201302
RWRSD

WEATHER ROUNDUP FOR SOUTH DAKOTA
NATIONAL WEATHER SERVICE SIOUX FALLS SD
800 AM CDT FRI OCT 20 2017

NOTE: "FAIR" INDICATES FEW OR NO CLOUDS BELOW 12,000 FEET WITH NO
SIGNIFICANT WEATHER AND/OR OBSTRUCTIONS TO VISIBILITY.


SDZ001>005-009-010-012>017-201400-
NORTHWEST AND NORTH CENTRAL SOUTH DAKOTA

CITY           SKY/WX    TMP DP  RH WIND       PRES   REMARKS
BUFFALO          N/A     55  25  31 NW3       29.43F
MOBRIDGE       CLEAR     57  48  72 SE16      29.50F
$$

SDZ012>016-024>037-041>051-057-063-072>074-201400-
SOUTHWEST AND SOUTH CENTRAL SOUTH DAKOTA

CITY           SKY/WX    TMP DP  RH WIND       PRES   REMARKS
RAPID CTY ARPT CLOUDY    46  29  51 CALM      29.56F
PIERRE         CLEAR     55  46  71 SE15      29.57F
CUSTER         CLEAR     53  25  33 W5        29.69F
ELLSWORTH AFB  CLOUDY    56  28  34 S6        29.54F
PHILIP         CLOUDY    57  46  66 S7        29.55F
PINE RIDGE     CLEAR     53  45  74 VRB5      29.64F
SPEARFISH      FAIR      68  30  24 SW26G37   29.54F
WINNER         FAIR      59  46  62 S22G31    29.64F
$$

SDZ004>011-016>023-039-040-201400-
NORTHEAST SOUTH DAKOTA

CITY           SKY/WX    TMP DP  RH WIND       PRES   REMARKS
ABERDEEN       CLEAR     56  47  71 S17G30    29.62F
WATERTOWN      CLOUDY    51  48  89 SE9       29.72F
BROOKINGS      CLOUDY    52  47  83 S16       29.78F
SISSETON         N/A     62  48  60 S12       29.66S
$$

SDZ017-020-022-023-036>040-048>070-201400-
SOUTHEAST SOUTH DAKOTA

CITY           SKY/WX    TMP DP  RH WIND       PRES   REMARKS
SIOUX FALLS    CLOUDY    57  49  74 S13G23    29.81F
HURON          CLEAR     54  47  77 S16       29.68F
CHAMBERLAIN    CLEAR     59  48  68 S12       29.65F
MITCHELL       CLEAR     56  48  74 S14       29.72F
YANKTON        CLEAR     59  49  69 S15       29.78F
$$

ABBREVIATIONS USED IN REMARKS
   TC - TEMPERATURE IN CELSIUS
  WCI - WIND CHILL INDEX
   HX - HEAT INDEX
  VSB - VISIBILITY





USA.gov is the U.S. government's official web portal to all federal, state and local government web resources and services.